| time (UTC) | temp C | wind direction | speed KPH | gust KPH | rain 1hr cm | rain 24hr cm | rain mn cm | humidity % | barometer mb |
| 20260505124820 | 20 | 203 | 4.8 | 9.7 | 0.00 | 0.00 | 0.00 | 66 | 1013.2 |
| 20260505123838 | 19 | 180 | 4.8 | 11.3 | 0.00 | 0.00 | 0.00 | 67 | 1013.2 |
| 20260505122820 | 19 | 203 | 6.4 | 12.9 | 0.00 | 0.00 | 0.00 | 67 | 1013.2 |
| 20260505121818 | 18 | 158 | 4.8 | 9.7 | 0.00 | 0.00 | 0.00 | 68 | 1013.0 |
| 20260505120838 | 18 | 180 | 6.4 | 11.3 | 0.00 | 0.00 | 0.00 | 69 | 1012.9 |
| 20260505115818 | 18 | 180 | 3.2 | 8.0 | 0.00 | 0.00 | 0.00 | 69 | 1012.8 |
| 20260505114820 | 18 | 203 | 6.4 | 8.0 | 0.00 | 0.00 | 0.00 | 70 | 1012.9 |
| 20260505113840 | 18 | 180 | 1.6 | 6.4 | 0.00 | 0.00 | 0.00 | 71 | 1012.8 |
| 20260505112820 | 17 | 203 | 6.4 | 8.0 | 0.00 | 0.00 | 0.00 | 71 | 1012.7 |
| 20260505111900 | 17 | 180 | 3.2 | 8.0 | 0.00 | 0.00 | 0.00 | 73 | 1012.6 |
| 20260505110820 | 16 | 135 | 1.6 | 6.4 | 0.00 | 0.00 | 0.00 | 75 | 1012.6 |
| 20260505101819 | 16 | 0.0 | 3.2 | 0.00 | 0.00 | 0.00 | 76 | 1012.3 | |
| 20260505100820 | 16 | 203 | 1.6 | 3.2 | 0.00 | 0.00 | 0.00 | 75 | 1012.3 |
| 20260505095820 | 16 | 135 | 3.2 | 9.7 | 0.00 | 0.00 | 0.00 | 75 | 1012.2 |
| 20260505094819 | 16 | 180 | 1.6 | 3.2 | 0.00 | 0.00 | 0.00 | 75 | 1012.2 |
| 20260505093819 | 16 | 158 | 3.2 | 6.4 | 0.00 | 0.00 | 0.00 | 75 | 1012.2 |
| 20260505092820 | 16 | 158 | 1.6 | 4.8 | 0.00 | 0.00 | 0.00 | 75 | 1012.1 |
| 20260505091820 | 17 | 0.0 | 1.6 | 0.00 | 0.00 | 0.00 | 74 | 1012.2 | |
| 20260505090819 | 17 | 180 | 1.6 | 3.2 | 0.00 | 0.00 | 0.00 | 73 | 1012.1 |
| 20260505085820 | 17 | 158 | 3.2 | 3.2 | 0.00 | 0.00 | 0.00 | 72 | 1012.0 |
| 20260505084819 | 17 | 158 | 3.2 | 6.4 | 0.00 | 0.00 | 0.00 | 72 | 1012.0 |
| 20260505083819 | 17 | 180 | 1.6 | 6.4 | 0.00 | 0.00 | 0.00 | 71 | 1012.0 |
| 20260505082819 | 17 | 0.0 | 1.6 | 0.00 | 0.00 | 0.00 | 71 | 1012.0 | |
| 20260505081820 | 17 | 158 | 1.6 | 6.4 | 0.00 | 0.00 | 0.00 | 71 | 1012.0 |
| 20260505080839 | 17 | 180 | 9.7 | 17.7 | 0.00 | 0.00 | 0.00 | 71 | 1011.9 |
| 20260505075819 | 17 | 180 | 1.6 | 3.2 | 0.00 | 0.00 | 0.00 | 71 | 1011.9 |
| 20260505074839 | 17 | 203 | 3.2 | 4.8 | 0.00 | 0.00 | 0.00 | 71 | 1011.9 |
| 20260505073819 | 17 | 180 | 4.8 | 8.0 | 0.00 | 0.00 | 0.00 | 71 | 1011.7 |
| 20260505072839 | 17 | 180 | 1.6 | 3.2 | 0.00 | 0.00 | 0.00 | 72 | 1011.6 |
| 20260505071819 | 17 | 180 | 1.6 | 4.8 | 0.00 | 0.00 | 0.00 | 72 | 1011.6 |
| 20260505070819 | 17 | 180 | 1.6 | 4.8 | 0.00 | 0.00 | 0.00 | 73 | 1011.7 |
| 20260505065820 | 17 | 180 | 1.6 | 4.8 | 0.00 | 0.00 | 0.00 | 72 | 1011.7 |
| 20260505064819 | 17 | 0.0 | 1.6 | 0.00 | 0.00 | 0.00 | 72 | 1011.7 | |
| 20260505063819 | 17 | 180 | 6.4 | 14.5 | 0.00 | 0.00 | 0.00 | 72 | 1011.7 |
| 20260505062819 | 17 | 135 | 4.8 | 8.0 | 0.00 | 0.00 | 0.00 | 72 | 1011.7 |
| 20260505061819 | 17 | 180 | 3.2 | 9.7 | 0.00 | 0.00 | 0.00 | 72 | 1011.5 |
| 20260505060840 | 17 | 180 | 4.8 | 9.7 | 0.00 | 0.00 | 0.00 | 72 | 1011.6 |
| 20260505055819 | 17 | 180 | 4.8 | 8.0 | 0.00 | 0.00 | 0.00 | 73 | 1011.6 |
| 20260505054819 | 17 | 180 | 3.2 | 6.4 | 0.00 | 0.00 | 0.00 | 74 | 1011.6 |
| 20260505053819 | 17 | 158 | 3.2 | 8.0 | 0.00 | 0.00 | 0.00 | 76 | 1011.7 |
| 20260505052839 | 17 | 180 | 4.8 | 11.3 | 0.00 | 0.00 | 0.00 | 77 | 1011.7 |
| 20260505051819 | 17 | 113 | 3.2 | 11.3 | 0.00 | 0.00 | 0.00 | 78 | 1011.6 |
| 20260505050819 | 17 | 180 | 3.2 | 6.4 | 0.00 | 0.00 | 0.00 | 79 | 1011.6 |
| 20260505040818 | 17 | 203 | 3.2 | 9.7 | 0.00 | 0.00 | 0.00 | 79 | 1011.6 |
| 20260505035818 | 17 | 180 | 3.2 | 6.4 | 0.00 | 0.00 | 0.00 | 79 | 1011.5 |
| 20260505034818 | 17 | 180 | 1.6 | 3.2 | 0.00 | 0.00 | 0.00 | 78 | 1011.5 |
| 20260505033820 | 17 | 158 | 1.6 | 8.0 | 0.00 | 0.00 | 0.00 | 79 | 1011.5 |
| 20260505032820 | 17 | 158 | 4.8 | 8.0 | 0.00 | 0.00 | 0.00 | 80 | 1011.5 |
| 20260505031818 | 17 | 180 | 1.6 | 3.2 | 0.00 | 0.00 | 0.00 | 80 | 1011.4 |
| 20260505030818 | 17 | 158 | 3.2 | 6.4 | 0.00 | 0.00 | 0.00 | 79 | 1011.3 |
| 20260505025818 | 17 | 180 | 1.6 | 3.2 | 0.00 | 0.00 | 0.00 | 79 | 1011.4 |
| 20260505024818 | 17 | 158 | 1.6 | 4.8 | 0.00 | 0.00 | 0.00 | 78 | 1011.5 |
| 20260505023820 | 17 | 180 | 1.6 | 4.8 | 0.00 | 0.00 | 0.00 | 78 | 1011.5 |
| 20260505022818 | 17 | 180 | 3.2 | 6.4 | 0.00 | 0.00 | 0.00 | 77 | 1011.3 |
| 20260505021900 | 17 | 203 | 1.6 | 4.8 | 0.00 | 0.00 | 0.00 | 75 | 1011.4 |
| 20260505020820 | 17 | 158 | 1.6 | 4.8 | 0.00 | 0.00 | 0.00 | 74 | 1011.4 |
| 20260505015838 | 17 | 158 | 1.6 | 3.2 | 0.00 | 0.00 | 0.00 | 73 | 1011.5 |
| 20260505014820 | 18 | 180 | 3.2 | 9.7 | 0.00 | 0.00 | 0.00 | 72 | 1011.4 |
| 20260505013820 | 18 | 135 | 3.2 | 9.7 | 0.00 | 0.00 | 0.00 | 71 | 1011.4 |
| 20260505012820 | 18 | 180 | 4.8 | 11.3 | 0.00 | 0.00 | 0.00 | 71 | 1011.3 |
| 20260505011820 | 18 | 158 | 1.6 | 4.8 | 0.00 | 0.00 | 0.00 | 70 | 1011.2 |
| 20260505010820 | 18 | 0.0 | 3.2 | 0.00 | 0.00 | 0.00 | 68 | 1011.1 | |
| 20260505005818 | 18 | 158 | 4.8 | 9.7 | 0.00 | 0.00 | 0.00 | 66 | 1011.0 |
| 20260505004820 | 18 | 158 | 3.2 | 6.4 | 0.00 | 0.00 | 0.00 | 63 | 1011.0 |
| 20260505003820 | 19 | 203 | 1.6 | 4.8 | 0.00 | 0.00 | 0.00 | 59 | 1011.0 |
| 20260505002820 | 19 | 203 | 3.2 | 6.4 | 0.00 | 0.00 | 0.00 | 56 | 1010.9 |
| 20260505001820 | 20 | 0.0 | 1.6 | 0.00 | 0.00 | 0.00 | 54 | 1010.8 | |
| 20260505000840 | 20 | 180 | 1.6 | 3.2 | 0.00 | 0.00 | 0.00 | 53 | 1010.8 |
| 20260504235820 | 20 | 158 | 1.6 | 4.8 | 0.00 | 0.00 | 0.00 | 53 | 1010.8 |
| 20260504234820 | 20 | 180 | 1.6 | 3.2 | 0.00 | 0.00 | 0.00 | 52 | 1010.8 |
| 20260504233820 | 21 | 158 | 3.2 | 4.8 | 0.00 | 0.00 | 0.00 | 51 | 1010.8 |
| 20260504232820 | 21 | 203 | 3.2 | 9.7 | 0.00 | 0.00 | 0.00 | 51 | 1010.7 |
| 20260504231839 | 21 | 180 | 6.4 | 8.0 | 0.00 | 0.00 | 0.00 | 49 | 1010.6 |
| 20260504230819 | 21 | 113 | 4.8 | 6.4 | 0.00 | 0.00 | 0.00 | 49 | 1010.6 |
| 20260504225819 | 21 | 180 | 4.8 | 8.0 | 0.00 | 0.00 | 0.00 | 48 | 1010.6 |
| 20260504224840 | 21 | 180 | 4.8 | 12.9 | 0.00 | 0.00 | 0.00 | 47 | 1010.6 |
| 20260504223819 | 21 | 203 | 4.8 | 6.4 | 0.00 | 0.00 | 0.00 | 46 | 1010.5 |
| 20260504222819 | 22 | 203 | 6.4 | 11.3 | 0.00 | 0.00 | 0.00 | 44 | 1010.7 |
| 20260504221840 | 22 | 158 | 8.0 | 17.7 | 0.00 | 0.00 | 0.00 | 43 | 1010.7 |
| 20260504220840 | 22 | 180 | 4.8 | 11.3 | 0.00 | 0.00 | 0.00 | 44 | 1010.7 |
| 20260504215819 | 22 | 158 | 6.4 | 9.7 | 0.00 | 0.00 | 0.00 | 46 | 1010.7 |
| 20260504214819 | 22 | 158 | 4.8 | 11.3 | 0.00 | 0.00 | 0.00 | 47 | 1010.7 |
| 20260504213819 | 22 | 180 | 8.0 | 16.1 | 0.00 | 0.00 | 0.00 | 48 | 1010.9 |
| 20260504212819 | 22 | 158 | 9.7 | 14.5 | 0.00 | 0.00 | 0.00 | 49 | 1010.9 |
| 20260504211819 | 22 | 180 | 6.4 | 17.7 | 0.00 | 0.00 | 0.00 | 47 | 1010.9 |
| 20260504210839 | 22 | 180 | 4.8 | 8.0 | 0.00 | 0.00 | 0.00 | 48 | 1010.9 |
| 20260504205819 | 22 | 180 | 6.4 | 11.3 | 0.00 | 0.00 | 0.00 | 47 | 1010.9 |
| 20260504204819 | 22 | 180 | 8.0 | 19.3 | 0.00 | 0.00 | 0.00 | 46 | 1010.9 |
| 20260504203819 | 22 | 180 | 9.7 | 14.5 | 0.00 | 0.00 | 0.00 | 44 | 1010.9 |
| 20260504202819 | 23 | 203 | 9.7 | 25.7 | 0.00 | 0.00 | 0.00 | 39 | 1010.9 |
| 20260504201819 | 23 | 180 | 8.0 | 14.5 | 0.00 | 0.00 | 0.00 | 41 | 1011.2 |
| 20260504200819 | 23 | 180 | 3.2 | 8.0 | 0.00 | 0.00 | 0.00 | 39 | 1011.1 |
| 20260504195819 | 23 | 180 | 8.0 | 14.5 | 0.00 | 0.00 | 0.00 | 39 | 1011.4 |
| 20260504194819 | 24 | 180 | 9.7 | 19.3 | 0.00 | 0.00 | 0.00 | 38 | 1011.4 |
| 20260504193819 | 25 | 0.0 | 4.8 | 0.00 | 0.00 | 0.00 | 38 | 1011.6 | |
| 20260504192819 | 24 | 158 | 3.2 | 6.4 | 0.00 | 0.00 | 0.00 | 38 | 1011.7 |
| 20260504191819 | 25 | 158 | 4.8 | 9.7 | 0.00 | 0.00 | 0.00 | 36 | 1011.9 |
| 20260504190819 | 25 | 248 | 4.8 | 14.5 | 0.00 | 0.00 | 0.00 | 34 | 1012.0 |
| 20260504185819 | 25 | 180 | 1.6 | 3.2 | 0.00 | 0.00 | 0.00 | 38 | 1012.1 |
| 20260504184819 | 24 | 0.0 | 1.6 | 0.00 | 0.00 | 0.00 | 36 | 1012.2 | |
| 20260504183859 | 24 | 180 | 6.4 | 9.7 | 0.00 | 0.00 | 0.00 | 42 | 1012.4 |
| 20260504182819 | 23 | 248 | 1.6 | 22.5 | 0.00 | 0.00 | 0.00 | 43 | 1012.5 |
| 20260504181839 | 23 | 225 | 4.8 | 8.0 | 0.00 | 0.00 | 0.00 | 37 | 1012.7 |
| 20260504180819 | 24 | 180 | 4.8 | 8.0 | 0.00 | 0.00 | 0.00 | 40 | 1012.8 |
| 20260504175819 | 23 | 203 | 3.2 | 4.8 | 0.00 | 0.00 | 0.00 | 36 | 1013.0 |
| 20260504174819 | 24 | 158 | 6.4 | 9.7 | 0.00 | 0.00 | 0.00 | 37 | 1013.0 |
| 20260504173838 | 23 | 180 | 1.6 | 3.2 | 0.00 | 0.00 | 0.00 | 40 | 1013.1 |
| 20260504172819 | 23 | 180 | 3.2 | 8.0 | 0.00 | 0.00 | 0.00 | 39 | 1013.3 |
| 20260504171822 | 23 | 180 | 1.6 | 4.8 | 0.00 | 0.00 | 0.00 | 43 | 1013.3 |
| 20260504170818 | 22 | 180 | 3.2 | 4.8 | 0.00 | 0.00 | 0.00 | 43 | 1013.3 |
| 20260504150819 | 21 | 0.0 | 1.6 | 0.00 | 0.00 | 0.00 | 48 | 1014.6 | |
| 20260504140818 | 18 | 248 | 3.2 | 6.4 | 0.00 | 0.00 | 0.00 | 55 | 1014.8 |